CZ-6A DEB, 54329

Orbit data source: Space-Track

CZ-6A DEB, 54329 is space debris in SSO originally from a launch on Fri, 11 Nov 2022 UTC launched from the Taiyaun Space Center, China (TSC). Debris objects in space refer to the collection of defunct objects orbiting the Earth. Examples of debris include non-operational satellites, rocket bodies, and fragments generated from explosions, collisions, or faulty payload assembly.

Loading next visibility...
Identifier
54329, 2022-151BY
Orbit
SSO
Country
Flag of CNCN / PRC
Related business
Manufacturer
SAST
Mission
Spacecraft
Bus & Motor
Unknown
Mass
Unknown
Launch date (UTC)
2022-11-11 (4 years ago)
Launch vehicle
Unknown
Launch site
Taiyaun Space Center, China (TSC)
Object type
Payload
Rocket body
Debris
Shape & HBR
Unknown shape, 0.1 m
Radar Cross Section
Medium (>0.1 m² and <1 m²)

Expand to show TLE details & history
Last TLE update: 13 hours ago

TLE from 13 hours ago
0 CZ-6A DEB
1 54329U 22151BY  26263.04371134  .00015187  00000-0  14844-2 0  9991
2 54329  98.6358  11.6252 0085414 160.2162 200.2400 14.89728538205832
Epoch: 2026-09-20T01:02Z
TLE epoch observation values (Epoch: 2026-09-20T01:02:56.659Z)
Latitude
-0.00002°
Longitude
-3.05443°
Altitude
657.78 km
Speed
7.498 km/s
True Right ascension
00h 46m 30s
True Declination
0° 00' 00"
Sunlit
Object was in full shadow at epoch
Visualization orbit readout
Latitude
Unknown
Longitude
Unknown
Altitude
Unknown
Speed
Unknown
Apparent Right ascension
Unknown
Apparent Declination
Unknown
Sunlit
N/A
Visualization observer readout
Local Sidereal Time
07:00:16
Azimuth
Unknown
Elevation
Unknown
Doppler factor
Unknown
Orbital elements
Apogee altitude
655.413 km
Perigee altitude
536.278 km
Semi-major axis
6,973.982 km
Eccentricity
0.00854
Inclination
98.6358°
RAAN
11.6252°
Arg. of periapsis
160.2162°
True anomaly
199.90475°
Mean anomaly
200.24°
Eccentric anomaly
200.07204°
Mean motion
3.72668 °/min
Orbital period
96.6 mins
BSTAR
0.0014844
Loading maneuver chart data...
Computing Atmospheric mass density...
Loading historical data...
Loading historical data...
Loading historical data...
Loading historical data...
Loading historical data...
Loading historical data...
Loading historical data...

Documentation

Showing up to 5 results
|